Location: El Centro
(32.7920°N, 115.5620°W)
Time: 08:50:43
(UTC-08:00)

Hamsat - Visible Passes

Search period start: 08 February 2016 00:00
Search period end: 18 February 2016 00:00
Orbit: 588 x 620 km, 97.6° (Epoch: 07 February)

Date Brightness Start Highest point End Pass type
(mag) Time Alt. Az. Time Alt. Az. Time Alt. Az.
08 Feb ? 04:33:40 10° N 04:36:56 51° N 04:36:56 51° N visible
09 Feb ? 04:46:02 10° N 04:49:41 53° NW 04:49:41 53° NW visible
10 Feb ? 03:24:41 10° ENE 03:25:35 12° ENE 03:25:35 12° ENE visible
10 Feb ? 04:58:31 10° N 05:02:27 41° WNW 05:02:27 41° WNW visible
11 Feb ? 03:36:04 10° NE 03:38:20 17° E 03:38:20 17° E visible
11 Feb ? 05:11:05 10° NNW 05:14:52 30° WNW 05:15:12 29° W visible
12 Feb ? 03:47:51 10° NE 03:51:05 25° E 03:51:05 25° E visible
12 Feb ? 05:23:48 10° NNW 05:27:06 22° WNW 05:27:57 20° W visible
13 Feb ? 03:59:51 10° NNE 04:03:50 35° E 04:03:50 35° E visible
13 Feb ? 05:36:43 10° NNW 05:39:18 16° WNW 05:40:42 14° W visible
14 Feb ? 04:11:57 10° NNE 04:16:11 51° E 04:16:36 49° ESE visible
14 Feb ? 05:50:11 10° NW 05:51:29 11° WNW 05:52:48 10° W visible
15 Feb ? 04:24:10 10° NNE 04:28:31 74° ESE 04:29:19 56° SSE visible
16 Feb ? 04:36:29 10° N 04:40:49 77° WNW 04:42:04 45° SSW visible
17 Feb ? 04:48:52 10° N 04:53:06 53° WNW 04:54:48 32° SW visible
